Regional Weather Roundup
Issued by NWS Portland, ME

Home | Current Version | Previous Version | Text Only | Print | Product List | Glossary On
Versions: 1 2 3 4 5 6 7 8 9 10 11 12 13 14 15 16 17 18 19 20 21 22 23 24 25 26 27 28 29 30 31 32 33 34 35 36 37 38 39 40 41 42 43 44 45 46 47 48 49 50
000
ASUS41 KGYX 260210
RWRGYX
WEATHER ROUNDUP FOR MAINE AND NEW HAMPSHIRE
NATIONAL WEATHER SERVICE GRAY ME
900 PM EST SUN JAN 25 2015

MEZ002-005-006-010-012-015-018-020-021-024-026-027-029-260300-
MAINE

CITY           SKY/WX    TMP DP  RH WIND       PRES   REMARKS
PORTLAND       CLEAR     16  -1  47 NW9       29.95R
SANFORD        CLEAR     14  -2  48 NW7       29.94R
BAR HARBOR     CLEAR     10   1  67 NW12G21   29.87R WCI  -4
WISCASSET      CLEAR     12  -5  46 VRB6      29.95R
ROCKLAND       FAIR      12  -2  52 NW9       29.90R
FRYEBURG       CLEAR      7  -4  60 CALM      29.94R
LEWISTONAUBURN CLEAR     10  -6  48 NW14G20   29.92R WCI  -5
AUGUSTA        CLEAR      8  -6  52 NW13G23   29.92R WCI  -8
WATERVILLE     CLEAR      9  -8  47 W13       29.89R WCI  -7
BANGOR         CLEAR      8  -6  52 W5        29.89R
GREENVILLE       N/A      2  -6  69 NW12G30   29.72R WCI -15
MILLINOCKET    CLEAR      9  -4  55 W17G26    29.81R WCI  -9
HOULTON        CLEAR      8  -5  55 W13G26    29.71R WCI  -8
PRESQUE ISLE   CLEAR      9  -6  52 W16       29.68R WCI  -9
FRENCHVILLE    CLEAR      2  -9  60 NW24G32   29.62R WCI -21
CARIBOU        CLEAR      7  -8  50 NW18G28   29.66R WCI -12
$$

NHZ002-005-008-009-011-012-014-260300-
NEW HAMPSHIRE

CITY           SKY/WX    TMP DP  RH WIND       PRES   REMARKS
PORTSMOUTH     MOCLDY    18   0  44 NW15G22   29.95R WCI   4
ROCHESTER      CLEAR     15  -1  49 NW15      29.94R WCI   0
NASHUA           N/A     21   3  45 NW10      29.97R WCI  10
MANCHESTER     MOCLDY    18   3  52 N9        29.96R
CONCORD        PTCLDY    16   0  49 NW14      29.98R WCI   2
LACONIA        CLEAR     10   0  61 W7        29.93R
PLYMOUTH       FAIR      10   2  71 CALM      29.97R
BERLIN         PTCLDY     3  -7  63 W8        29.92R
WHITEFIELD     PTCLDY    -2  -7  79 SW3       29.96R
JAFFREY        PTCLDY    17   1  49 VRB6      29.90R
KEENE          MOCLDY    18   1  49 N8        29.95R
LEBANON        CLEAR     10  -1  61 NE6       29.98R
MT WASHINGTON  PTCLDY   -15 -22  70 NW66        N/A  WCI -56
$$

VTZ005-007-008-260300-
VERMONT

CITY           SKY/WX    TMP DP  RH WIND       PRES   REMARKS
ST JOHNSBURY     N/A      1  -4  79 MISG      30.00R
MONTPELIER     CLEAR      2  -6  69 N5        30.00R
BURLINGTON     CLEAR      5  -4  66 E5        30.07R
$$

MAZ007-012-024-CTZ003-RIZ002-NYZ038-NYZ072-260300-
SOUTHERN NEW ENGLAND AND NY

CITY           SKY/WX    TMP DP  RH WIND       PRES   REMARKS
BOSTON         PTCLDY    25   7  46 NW8       29.96R
WORCESTER      PTCLDY    17   3  54 NW6       29.90R
NANTUCKET      PTCLDY    32  12  43 NW14      29.92R
PROVIDENCE     FAIR      25   7  46 W7        29.95R
HARTFORD       PTCLDY    21   1  41 NW9       29.98R
ALBANY         MOCLDY    16   1  51 NW6       30.02R
NEW YORK CITY  CLOUDY    33  12  41 N14       29.96R
$$

ANZ081-ANZ082-ANZ150-NHZ014-MEZ023>029-260300-
COASTAL MARINE OBSERVATIONS

STATION/POSITION TIME  TEMP    WIND        PRES    WAVE
                       AIR SEA DIR/SP/G            HT/PER
                 (UTC) (F)     (DEG/KT/KT) (MB)    (FT/S)
MOUNT DESERT ROC 0200   19                 1010.6R
MATINICUS ROCK   0200          310/ 28/ 31 1012.0R
PORTLAND WX BUOY 0150   21 40  320/ 12/ 17 1013.8R   4/13
WELLS            0100   18 35  320/  7/ 13 1012.6R
ISLE OF SHOALS   0200   21     300/ 25/ 28 1012.8R
JEFFREYS LEDGE   0121      44                N/A     7/ 6
CASHES LEDGE BUO 0150   27 45  310/ 23/ 29 1011.4    8/ 6
$$

.............KEY..............
   WCI - WIND CHILL
   TC  - TEMPERATURE IN CELSIUS
   VSB - VISIBILITY IN MILES
   HX  - HEAT INDEX
   FAIR- INDICATES FEW OR NO CLOUDS BELOW 12,000 FT, WITH NO
         SIGNIFICANT WEATHER AND/OR OBSTRUCTIONS TO VISIBILITY.




USA.gov is the U.S. government's official web portal to all federal, state and local government web resources and services.